Find Starlink 37028

NORAD ID: 68270 Int'l Des: 2026-055 Owner: SPXS Country: US Constellation: starlink operational
LEOCIRCULAR

Live Position

Loading 3D Globe...

About Starlink 37028

Description loading...

Upcoming Passes

Passes for default location (London). Set your location on the main map for personalized predictions.

Altitude History

Loading altitude history...

Two-Line Element Set

1 68270U 26055J 26124.83335647 .00031938 00000-0 10586-2 0 9991
2 68270 53.1604 59.3141 0001202 87.2294 328.8047 15.31021024 6001
Epoch: May 4, 2026 • Age: 4 hours

Current Status

Altitude 491.3 km
Velocity 7.62 km/s
Sub-Earth Point -51.32°S, 84.07°E
Launch Date Mar 19, 2026
Age 0.1 years
Type internet

Technical Details

Classification Payload
Mass 575.00 kg
Dry Mass 530.00 kg
Total Mass 575.00 kg
Length 0.30 m
Diameter 4.10 m
Span 29.00 m
Shape Box + pan
Manufacturer SPXS
Bus Type Starlink V2MO
Phase Status In Orbit
Owner/State SPXS/US

Most Searched